| time (UTC) | temp F | wind direction | speed MPH | gust MPH | rain 1hr in | rain 24hr in | rain mn in | humidity % | barometer mb |
| 20260905234557 | 75 | 0 | 0.0 | 1.0 | 0.00 | 0.05 | 0.04 | 75 | 1012.4 |
| 20260905233055 | 76 | 0 | 0.0 | 0.0 | 0.00 | 0.05 | 0.04 | 74 | 1012.3 |
| 20260905231602 | 76 | 0 | 0.0 | 2.0 | 0.00 | 0.05 | 0.04 | 73 | 1012.3 |
| 20260905230103 | 77 | 0 | 1.0 | 3.0 | 0.00 | 0.05 | 0.04 | 72 | 1012.2 |
| 20260905224604 | 78 | 0 | 0.0 | 3.0 | 0.00 | 0.05 | 0.04 | 71 | 1012.1 |
| 20260905223051 | 78 | 327 | 1.0 | 3.0 | 0.00 | 0.05 | 0.04 | 69 | 1011.8 |
| 20260905221551 | 78 | 327 | 2.0 | 6.0 | 0.00 | 0.05 | 0.04 | 68 | 1011.6 |
| 20260905214552 | 79 | 5 | 2.0 | 5.0 | 0.01 | 0.05 | 0.04 | 68 | 1011.5 |
| 20260905213107 | 79 | 319 | 2.0 | 7.0 | 0.01 | 0.05 | 0.04 | 69 | 1011.3 |
| 20260905211552 | 80 | 352 | 2.0 | 6.0 | 0.01 | 0.05 | 0.04 | 69 | 1011.2 |
| 20260905210049 | 81 | 355 | 4.0 | 8.0 | 0.01 | 0.05 | 0.04 | 66 | 1011.1 |
| 20260905204558 | 81 | 5 | 2.0 | 8.0 | 0.00 | 0.04 | 0.03 | 65 | 1011.3 |
| 20260905203056 | 81 | 323 | 2.0 | 5.0 | 0.00 | 0.04 | 0.03 | 65 | 1011.5 |
| 20260905201552 | 79 | 336 | 2.0 | 6.0 | 0.00 | 0.04 | 0.03 | 69 | 1011.6 |
| 20260905200053 | 80 | 5 | 1.0 | 5.0 | 0.00 | 0.04 | 0.03 | 68 | 1011.5 |
| 20260905194556 | 79 | 63 | 2.0 | 8.0 | 0.00 | 0.05 | 0.03 | 72 | 1011.6 |
| 20260905193058 | 79 | 240 | 1.0 | 5.0 | 0.00 | 0.05 | 0.03 | 77 | 1011.8 |
| 20260905191603 | 77 | 211 | 3.0 | 6.0 | 0.00 | 0.05 | 0.03 | 81 | 1012.0 |
| 20260905190054 | 75 | 219 | 3.0 | 6.0 | 0.00 | 0.05 | 0.03 | 86 | 1012.1 |
| 20260905184603 | 75 | 15 | 0.0 | 2.0 | 0.00 | 0.05 | 0.03 | 88 | 1012.1 |
| 20260905183057 | 74 | 0 | 0.0 | 2.0 | 0.00 | 0.05 | 0.03 | 86 | 1012.1 |
| 20260905181559 | 75 | 298 | 2.0 | 10.0 | 0.00 | 0.05 | 0.03 | 80 | 1012.4 |
| 20260905180049 | 78 | 51 | 5.0 | 11.0 | 0.00 | 0.05 | 0.03 | 74 | 1012.2 |
| 20260905174554 | 79 | 34 | 2.0 | 9.0 | 0.00 | 0.05 | 0.03 | 70 | 1012.3 |
| 20260905173053 | 79 | 351 | 2.0 | 7.0 | 0.00 | 0.05 | 0.03 | 71 | 1012.3 |
| 20260905171550 | 79 | 327 | 2.0 | 5.0 | 0.00 | 0.05 | 0.03 | 72 | 1012.6 |
| 20260905170059 | 78 | 105 | 2.0 | 7.0 | 0.00 | 0.05 | 0.03 | 74 | 1012.7 |
| 20260905164600 | 79 | 5 | 1.0 | 5.0 | 0.01 | 0.06 | 0.03 | 73 | 1012.9 |
| 20260905163051 | 78 | 0 | 3.0 | 11.0 | 0.01 | 0.06 | 0.03 | 73 | 1012.9 |
| 20260905161547 | 79 | 61 | 4.0 | 7.0 | 0.01 | 0.06 | 0.03 | 71 | 1013.1 |
| 20260905160106 | 78 | 27 | 1.0 | 6.0 | 0.01 | 0.06 | 0.03 | 74 | 1013.3 |
| 20260905154551 | 78 | 80 | 2.0 | 4.0 | 0.00 | 0.05 | 0.02 | 74 | 1013.4 |
| 20260905153056 | 79 | 0 | 0.0 | 2.0 | 0.00 | 0.05 | 0.02 | 74 | 1013.8 |
| 20260905151558 | 78 | 0 | 1.0 | 5.0 | 0.00 | 0.05 | 0.02 | 75 | 1013.9 |
| 20260905150055 | 78 | 0 | 0.0 | 2.0 | 0.00 | 0.05 | 0.02 | 76 | 1013.9 |
| 20260905144550 | 75 | 138 | 0.0 | 3.0 | 0.00 | 0.05 | 0.02 | 81 | 1013.9 |
| 20260905143048 | 74 | 15 | 1.0 | 3.0 | 0.00 | 0.05 | 0.02 | 82 | 1013.9 |
| 20260905141600 | 74 | 0 | 0.0 | 3.0 | 0.00 | 0.05 | 0.02 | 82 | 1013.8 |
| 20260905140105 | 73 | 0 | 0.0 | 3.0 | 0.00 | 0.05 | 0.02 | 84 | 1013.8 |
| 20260905134549 | 73 | 15 | 2.0 | 4.0 | 0.00 | 0.06 | 0.02 | 83 | 1013.5 |
| 20260905133106 | 73 | 15 | 1.0 | 4.0 | 0.00 | 0.06 | 0.02 | 83 | 1013.2 |
| 20260905131607 | 73 | 17 | 2.0 | 5.0 | 0.00 | 0.06 | 0.02 | 85 | 1013.1 |
| 20260905130053 | 73 | 15 | 2.0 | 4.0 | 0.00 | 0.06 | 0.02 | 85 | 1013.2 |
| 20260905124549 | 72 | 217 | 1.0 | 3.0 | 0.00 | 0.06 | 0.02 | 87 | 1013.3 |
| 20260905123101 | 72 | 167 | 0.0 | 4.0 | 0.00 | 0.06 | 0.02 | 88 | 1013.3 |
| 20260905121553 | 71 | 178 | 0.0 | 2.0 | 0.00 | 0.06 | 0.02 | 89 | 1013.0 |
| 20260905120049 | 71 | 212 | 1.0 | 2.0 | 0.00 | 0.06 | 0.02 | 90 | 1012.9 |
| 20260905114554 | 70 | 0 | 0.0 | 3.0 | 0.00 | 0.06 | 0.02 | 90 | 1012.9 |
| 20260905113049 | 70 | 257 | 0.0 | 2.0 | 0.01 | 0.06 | 0.02 | 90 | 1012.9 |
| 20260905111606 | 70 | 258 | 0.0 | 2.0 | 0.01 | 0.06 | 0.02 | 89 | 1012.6 |
| 20260905110100 | 70 | 0 | 0.0 | 2.0 | 0.01 | 0.06 | 0.02 | 89 | 1012.6 |
| 20260905104609 | 71 | 0 | 1.0 | 3.0 | 0.01 | 0.07 | 0.02 | 88 | 1012.4 |
| 20260905103049 | 70 | 335 | 1.0 | 3.0 | 0.00 | 0.06 | 0.01 | 88 | 1012.4 |
| 20260905101550 | 70 | 188 | 0.0 | 3.0 | 0.00 | 0.06 | 0.01 | 88 | 1012.2 |
| 20260905100057 | 70 | 30 | 1.0 | 4.0 | 0.00 | 0.06 | 0.01 | 89 | 1012.2 |
| 20260905094551 | 70 | 15 | 1.0 | 4.0 | 0.00 | 0.06 | 0.01 | 89 | 1012.1 |
| 20260905093102 | 70 | 314 | 1.0 | 2.0 | 0.00 | 0.06 | 0.01 | 87 | 1012.0 |
| 20260905091549 | 71 | 0 | 0.0 | 2.0 | 0.00 | 0.06 | 0.01 | 86 | 1011.9 |
| 20260905090057 | 72 | 27 | 0.0 | 2.0 | 0.00 | 0.06 | 0.01 | 85 | 1011.8 |
| 20260905084602 | 72 | 34 | 4.0 | 8.0 | 0.00 | 0.06 | 0.01 | 84 | 1011.9 |
| 20260905083050 | 72 | 26 | 0.0 | 6.0 | 0.00 | 0.06 | 0.01 | 83 | 1011.9 |
| 20260905081559 | 73 | 32 | 3.0 | 9.0 | 0.00 | 0.06 | 0.01 | 82 | 1012.1 |
| 20260905080050 | 73 | 27 | 2.0 | 8.0 | 0.00 | 0.06 | 0.01 | 82 | 1012.2 |
| 20260905074555 | 73 | 28 | 2.0 | 8.0 | 0.00 | 0.07 | 0.01 | 82 | 1012.1 |
| 20260905073103 | 73 | 27 | 4.0 | 10.0 | 0.00 | 0.07 | 0.01 | 83 | 1012.2 |
| 20260905071551 | 73 | 26 | 4.0 | 10.0 | 0.00 | 0.07 | 0.01 | 83 | 1012.3 |
| 20260905070052 | 73 | 25 | 4.0 | 9.0 | 0.00 | 0.07 | 0.01 | 82 | 1012.6 |
| 20260905064549 | 73 | 25 | 2.0 | 8.0 | 0.00 | 0.07 | 0.01 | 82 | 1012.8 |
| 20260905063055 | 73 | 121 | 3.0 | 6.0 | 0.00 | 0.07 | 0.01 | 83 | 1012.9 |
| 20260905061553 | 74 | 138 | 1.0 | 8.0 | 0.00 | 0.07 | 0.01 | 82 | 1013.1 |
| 20260905060050 | 74 | 152 | 4.0 | 9.0 | 0.00 | 0.07 | 0.01 | 82 | 1013.3 |
| 20260905054559 | 74 | 191 | 4.0 | 9.0 | 0.01 | 0.07 | 0.01 | 81 | 1013.4 |
| 20260905053135 | 74 | 123 | 3.0 | 7.0 | 0.01 | 0.07 | 0.01 | 81 | 1013.4 |
| 20260905051553 | 74 | 221 | 3.0 | 9.0 | 0.01 | 0.07 | 0.01 | 81 | 1013.8 |
| 20260905050049 | 75 | 127 | 4.0 | 9.0 | 0.01 | 0.07 | 0.01 | 80 | 1013.9 |
| 20260905044550 | 75 | 174 | 4.0 | 11.0 | 0.00 | 0.07 | 0.00 | 80 | 1013.9 |
| 20260905043055 | 75 | 142 | 5.0 | 10.0 | 0.00 | 0.07 | 0.00 | 81 | 1014.0 |
| 20260905041552 | 75 | 169 | 4.0 | 9.0 | 0.00 | 0.07 | 0.00 | 81 | 1014.2 |
| 20260905040050 | 75 | 163 | 4.0 | 8.0 | 0.00 | 0.07 | 0.00 | 82 | 1014.1 |
| 20260905034554 | 75 | 150 | 1.0 | 7.0 | 0.00 | 0.07 | 0.07 | 83 | 1014.2 |
| 20260905033104 | 74 | 161 | 3.0 | 9.0 | 0.00 | 0.07 | 0.07 | 83 | 1014.0 |
| 20260905031600 | 74 | 0 | 0.0 | 9.0 | 0.00 | 0.07 | 0.07 | 84 | 1014.0 |
| 20260905030055 | 74 | 0 | 0.0 | 5.0 | 0.00 | 0.07 | 0.07 | 84 | 1014.0 |
| 20260905024559 | 74 | 251 | 0.0 | 3.0 | 0.00 | 0.07 | 0.07 | 83 | 1013.9 |
| 20260905023055 | 75 | 257 | 1.0 | 4.0 | 0.00 | 0.07 | 0.07 | 82 | 1013.7 |
| 20260905021549 | 75 | 232 | 2.0 | 7.0 | 0.00 | 0.07 | 0.07 | 81 | 1013.7 |
| 20260905020105 | 75 | 200 | 4.0 | 9.0 | 0.00 | 0.07 | 0.07 | 82 | 1013.5 |
| 20260905014557 | 75 | 182 | 1.0 | 8.0 | 0.00 | 0.07 | 0.07 | 83 | 1013.2 |
| 20260905013057 | 75 | 150 | 0.0 | 3.0 | 0.00 | 0.07 | 0.07 | 82 | 1013.3 |
| 20260905011554 | 75 | 119 | 1.0 | 5.0 | 0.00 | 0.07 | 0.07 | 82 | 1013.3 |
| 20260905010050 | 76 | 0 | 1.0 | 5.0 | 0.00 | 0.07 | 0.07 | 82 | 1013.3 |
| 20260905004551 | 76 | 0 | 0.0 | 4.0 | 0.00 | 0.08 | 0.07 | 81 | 1013.0 |
| 20260905003055 | 77 | 190 | 2.0 | 8.0 | 0.01 | 0.08 | 0.07 | 79 | 1013.2 |
| 20260905001554 | 77 | 165 | 2.0 | 5.0 | 0.01 | 0.08 | 0.07 | 79 | 1012.9 |
| 20260905000050 | 77 | 154 | 2.0 | 9.0 | 0.01 | 0.08 | 0.07 | 79 | 1012.9 |